Cortez, CO

12:26 PM MDT on March 29, 2017 (GMT -0600)
Cortez Municipal

Weather History for KCEZ - September, 2012

Change the Weather History Date:

Tuesday, September 4, 2012

  Actual Average Record
Temperature  
Mean Temperature 70 °F 64 °F  
Max Temperature 89 °F 82 °F 90 °F (2001)
Min Temperature 51 °F 48 °F 37 °F (2008)
Degree Days  
Heating Degree Days 0 2  
Month to date heating degree days 0 7  
Since 1 July heating degree days 1 19  
Cooling Degree Days 5 1  
Month to date cooling degree days 23 7  
Year to date cooling degree days 731 416  
Growing Degree Days 20 (Base 50)    
Moisture  
Dew Point 41 °F    
Average Humidity 45    
Maximum Humidity 77    
Minimum Humidity 13    
Precipitation  
Precipitation 0.00 in 0.05 in 0.74 in (2004)
Month to date precipitation 0.37 0.19  
Year to date precipitation 5.69 8.63  
Sea Level Pressure  
Sea Level Pressure 30.00 in    
Wind  
Wind Speed 7 mph (NE)    
Max Wind Speed 20 mph    
Max Gust Speed 24 mph    
Visibility 10 miles    
Events      
T = Trace of Precipitation, MM = Missing Value Source: NWS Daily Summary

Daily Weather History Graph

Daily Weather History Graph

Search for Another Location

Airport or City:

Trip Planner

Search our weather history database for the weather conditions in past years. The results will help you decide how hot, cold, wet, or windy it might be!

Date:

Astronomy

Sep. 04, 2012 Rise Set
Actual Time 6:47 AM MDT 7:38 PM MDT
Civil Twilight 6:21 AM MDT 8:04 PM MDT
Nautical Twilight 5:50 AM MDT 8:35 PM MDT
Astronomical Twilight 5:17 AM MDT 9:08 PM MDT
Moon 9:40 PM MDT (9/4) 10:50 AM MDT (9/4)
Length of Visible Light 13h 43m
Length of Day
12h 50m
Waning Gibbous, 83% of the Moon is Illuminated
Sep 4
Waning Gibbous
Sep 8
Last Quarter
Sep 15
New
Sep 22
First Quarter
Sep 29
Full

Hourly Weather History & Observations

Time (MDT) Temp. Dew Point Humidity Pressure Visibility Wind Dir Wind Speed Gust Speed Precip Events Conditions
12:53 AM 57.9 °F 46.9 °F 67% 30.03 in 10.0 mi East 4.6 mph - N/A   Clear
1:53 AM 55.9 °F 46.9 °F 72% 30.03 in 10.0 mi ENE 5.8 mph - N/A   Clear
2:53 AM 54.0 °F 46.0 °F 75% 30.04 in 10.0 mi NE 5.8 mph - N/A   Clear
3:53 AM 53.1 °F 45.0 °F 74% 30.03 in 10.0 mi East 6.9 mph - N/A   Clear
4:53 AM 52.0 °F 45.0 °F 77% 30.04 in 10.0 mi ENE 5.8 mph - N/A   Clear
5:53 AM 52.0 °F 44.1 °F 74% 30.04 in 10.0 mi East 5.8 mph - N/A   Clear
6:53 AM 52.0 °F 44.1 °F 74% 30.06 in 10.0 mi East 3.5 mph - N/A   Clear
7:53 AM 57.0 °F 45.0 °F 64% 30.08 in 10.0 mi East 3.5 mph - N/A   Clear
8:53 AM 66.0 °F 45.0 °F 47% 30.07 in 10.0 mi ENE 3.5 mph - N/A   Clear
9:53 AM 73.9 °F 45.0 °F 35% 30.06 in 10.0 mi Calm Calm - N/A   Clear
10:53 AM 77.0 °F 44.1 °F 31% 30.05 in 10.0 mi Calm Calm - N/A   Clear
11:53 AM 81.0 °F 43.0 °F 26% 30.04 in 10.0 mi Variable 3.5 mph - N/A   Clear
12:53 PM 84.9 °F 39.0 °F 20% 30.01 in 10.0 mi Variable 6.9 mph - N/A   Clear
1:53 PM 87.1 °F 37.9 °F 18% 29.98 in 10.0 mi WSW 11.5 mph 18.4 mph N/A   Clear
2:53 PM 88.0 °F 35.1 °F 15% 29.96 in 10.0 mi West 9.2 mph 21.9 mph N/A   Clear
4:53 PM 86.0 °F 33.1 °F 15% 29.94 in 10.0 mi North 9.2 mph - N/A   Mostly Cloudy
5:53 PM 86.0 °F 30.9 °F 14% 29.93 in 10.0 mi North 6.9 mph - N/A   Scattered Clouds
6:53 PM 82.0 °F 30.9 °F 16% 29.94 in 10.0 mi NNW 9.2 mph - N/A   Scattered Clouds
7:53 PM 79.0 °F 37.0 °F 22% 29.95 in 10.0 mi West 13.8 mph - N/A   Clear
8:53 PM 77.0 °F 39.0 °F 25% 29.94 in 10.0 mi WNW 15.0 mph - N/A   Clear
9:53 PM 75.0 °F 41.0 °F 29% 29.94 in 10.0 mi WNW 8.1 mph - N/A   Clear
10:53 PM 66.9 °F 44.1 °F 44% 29.95 in 10.0 mi ENE 9.2 mph - N/A   Partly Cloudy
11:53 PM 63.0 °F 42.1 °F 46% 29.97 in 10.0 mi NE 6.9 mph - N/A   Scattered Clouds